Weather History for Walnut Ridge, AR

Change the Weather History Date:

Sunday, December 16, 2012

  Actual Average Record
Temperature  
Mean Temperature 50 °F -  
Max Temperature 55 °F 44 °F 66 °F (2006)
Min Temperature 46 °F 30 °F 21 °F (2008)
Degree Days  
Heating Degree Days 14    
Moisture  
Dew Point 50 °F    
Average Humidity 93    
Maximum Humidity 100    
Minimum Humidity 82    
Precipitation  
Precipitation 0.00 in - - ()
Sea Level Pressure  
Sea Level Pressure 29.76 in    
Wind  
Wind Speed 9 mph (SSW)    
Max Wind Speed 15 mph    
Max Gust Speed -    
Visibility 9 miles    
Events      
Averages and records for this station are not official NWS values.
T = Trace of Precipitation, MM = Missing Value Source: NWS Daily Summary

Daily Weather History Graph

Daily Weather History Graph

Search for Another Location

Airport:

Trip Planner

Search our weather history database for the weather conditions in past years. The results will help you decide how hot, cold, wet, or windy it might be!

Date:

Astronomy

Dec. 16, 2012 Rise Set
Actual Time 7:08 AM CST 4:50 PM CST
Civil Twilight 6:39 AM CST 5:19 PM CST
Nautical Twilight 6:07 AM CST 5:51 PM CST
Astronomical Twilight 5:36 AM CST 6:23 PM CST
Moon 9:47 AM CST (12/16) 8:59 PM CST (12/16)
Length of Visible Light 10h 40m
Length of Day
9h 42m
Waxing Crescent, 16% of the Moon is Illuminated
Dec 16
Waxing Crescent
Dec 19
First Quarter
Dec 28
Full
Jan 4
Last Quarter
Jan 11
New

Hourly Weather History & Observations

Time (CST) Temp. Windchill Dew Point Humidity Pressure Visibility Wind Dir Wind Speed Gust Speed Precip Events Conditions
12:15 AM 55.4 °F - 53.6 °F 94% 29.79 in 1.8 mi SSW 10.4 mph - N/A   Clear
12:36 AM 55.4 °F - 55.4 °F 100% 29.79 in 4.0 mi SSW 10.4 mph - N/A   Clear
12:55 AM 55.4 °F - 55.4 °F 100% 29.78 in 7.0 mi SSW 10.4 mph - N/A   Clear
1:15 AM 55.4 °F - 55.4 °F 100% 29.79 in 8.0 mi SSW 10.4 mph - N/A   Clear
1:55 AM 53.6 °F - 53.6 °F 100% 29.80 in 10.0 mi SSW 9.2 mph - N/A   Clear
2:15 AM 53.6 °F - 51.8 °F 94% 29.79 in 10.0 mi SSW 8.1 mph - N/A   Clear
2:56 AM 53.6 °F - 51.8 °F 94% 29.80 in 10.0 mi SSW 9.2 mph - N/A   Clear
3:35 AM 51.8 °F - 50.0 °F 94% 29.80 in 10.0 mi SSW 8.1 mph - N/A   Clear
4:15 AM 51.8 °F - 48.2 °F 88% 29.80 in 10.0 mi SSW 5.8 mph - N/A   Clear
4:35 AM 50.0 °F - 48.2 °F 94% 29.79 in 10.0 mi SW 5.8 mph - N/A   Clear
4:55 AM 48.2 °F - 48.2 °F 100% 29.79 in 10.0 mi SSW 5.8 mph - N/A   Clear
5:16 AM 48.2 °F - 46.4 °F 93% 29.79 in 10.0 mi SSW 6.9 mph - N/A   Clear
5:35 AM 50.0 °F - 48.2 °F 94% 29.79 in 10.0 mi South 9.2 mph - N/A   Clear
5:55 AM 50.0 °F - 48.2 °F 94% 29.80 in 10.0 mi SSW 6.9 mph - N/A   Clear
6:15 AM 50.0 °F - 48.2 °F 94% 29.80 in 10.0 mi South 9.2 mph - N/A   Clear
6:35 AM 51.8 °F - 48.2 °F 88% 29.80 in 10.0 mi South 9.2 mph - N/A   Clear
7:15 AM 50.0 °F - 48.2 °F 94% 29.81 in 10.0 mi South 9.2 mph - N/A   Clear
7:55 AM 51.8 °F - 50.0 °F 94% 29.81 in 10.0 mi SSW 11.5 mph - N/A   Clear
8:15 AM 51.8 °F - 50.0 °F 94% 29.81 in 10.0 mi SSW 9.2 mph - N/A   Clear
8:35 AM 51.8 °F - 51.8 °F 100% 29.80 in 10.0 mi SSW 9.2 mph - N/A   Clear
9:15 AM 53.6 °F - 51.8 °F 94% 29.78 in 10.0 mi South 10.4 mph - N/A   Clear
9:35 AM 53.6 °F - 51.8 °F 94% 29.78 in 10.0 mi SSW 9.2 mph - N/A   Clear
9:55 AM 53.6 °F - 51.8 °F 94% 29.78 in 10.0 mi SSW 9.2 mph - N/A   Clear
10:35 AM 53.6 °F - 51.8 °F 94% 29.77 in 10.0 mi Calm Calm - N/A   Clear
10:55 AM 53.6 °F - 51.8 °F 94% 29.77 in 10.0 mi SSW 3.5 mph - N/A   Clear
11:16 AM 53.6 °F - 51.8 °F 94% 29.78 in 10.0 mi South 9.2 mph - N/A   Clear
11:35 AM 53.6 °F - 51.8 °F 94% 29.79 in 10.0 mi South 11.5 mph - N/A   Clear
11:55 AM 53.6 °F - 51.8 °F 94% 29.77 in 10.0 mi South 11.5 mph - N/A   Clear
12:15 PM 55.4 °F - 51.8 °F 88% 29.75 in 10.0 mi South 11.5 mph - N/A   Clear
12:36 PM 55.4 °F - 51.8 °F 88% 29.73 in 10.0 mi South 12.7 mph - N/A   Clear
12:55 PM 55.4 °F - 51.8 °F 88% 29.73 in 10.0 mi South 15.0 mph - N/A   Clear
1:15 PM 55.4 °F - 51.8 °F 88% 29.72 in 10.0 mi South 15.0 mph - N/A   Clear
1:55 PM 55.4 °F - 51.8 °F 88% 29.70 in 10.0 mi SSW 11.5 mph - N/A   Clear
2:15 PM 55.4 °F - 51.8 °F 88% 29.70 in 10.0 mi SSW 11.5 mph - N/A   Clear
2:35 PM 55.4 °F - 51.8 °F 88% 29.70 in 10.0 mi SSW 10.4 mph - N/A   Scattered Clouds
2:56 PM 55.4 °F - 51.8 °F 88% 29.70 in 10.0 mi SSW 13.8 mph - N/A   Scattered Clouds
3:15 PM 55.4 °F - 51.8 °F 88% 29.70 in 10.0 mi SSW 11.5 mph - N/A   Scattered Clouds
3:35 PM 55.4 °F - 51.8 °F 88% 29.70 in 10.0 mi SSW 11.5 mph - N/A   Partly Cloudy
3:56 PM 55.4 °F - 51.8 °F 88% 29.71 in 10.0 mi SSW 11.5 mph - N/A   Clear
4:15 PM 55.4 °F - 51.8 °F 88% 29.71 in 10.0 mi SSW 9.2 mph - N/A   Clear
4:35 PM 55.4 °F - 51.8 °F 88% 29.71 in 10.0 mi SSW 10.4 mph - N/A   Clear
5:15 PM 53.6 °F - 48.2 °F 82% 29.71 in 10.0 mi SSW 5.8 mph - N/A   Clear
5:35 PM 51.8 °F - 48.2 °F 88% 29.72 in 10.0 mi SSW 4.6 mph - N/A   Clear
5:55 PM 51.8 °F - 48.2 °F 88% 29.72 in 10.0 mi South 8.1 mph - N/A   Clear
6:15 PM 50.0 °F - 48.2 °F 94% 29.72 in 10.0 mi South 5.8 mph - N/A   Clear
6:35 PM 48.2 °F - 46.4 °F 93% 29.73 in 10.0 mi South 8.1 mph - N/A   Clear
6:55 PM 48.2 °F - 46.4 °F 93% 29.74 in 9.0 mi South 9.2 mph - N/A   Clear
7:16 PM 48.2 °F - 46.4 °F 93% 29.74 in 7.0 mi South 5.8 mph - N/A   Clear
7:35 PM 46.4 °F 42.4 °F 44.6 °F 93% 29.73 in 10.0 mi South 8.1 mph - N/A   Clear
7:55 PM 48.2 °F - 46.4 °F 93% 29.73 in 5.0 mi South 12.7 mph - N/A   Clear
8:15 PM 48.2 °F - 46.4 °F 93% 29.73 in 5.0 mi South 11.5 mph - N/A   Clear
8:35 PM 48.2 °F - 46.4 °F 93% 29.73 in 10.0 mi South 8.1 mph - N/A   Clear
8:55 PM 46.4 °F 42.4 °F 46.4 °F 100% 29.73 in 8.0 mi SSW 8.1 mph - N/A   Clear
9:35 PM 48.2 °F - 46.4 °F 93% 29.73 in 7.0 mi SW 8.1 mph - N/A   Clear
9:55 PM 46.4 °F - 46.4 °F 100% 29.74 in 5.0 mi Calm Calm - N/A   Clear
10:15 PM 46.4 °F 42.9 °F 44.6 °F 93% 29.74 in 3.0 mi SSW 6.9 mph - N/A   Scattered Clouds
10:55 PM 51.8 °F - 50.0 °F 94% 29.75 in 7.0 mi SSW 9.2 mph - N/A   Mostly Cloudy
11:15 PM 51.8 °F - 51.8 °F 100% 29.74 in 7.0 mi SSW 9.2 mph - N/A   Mostly Cloudy
11:35 PM 51.8 °F - 51.8 °F 100% 29.73 in 7.0 mi South 10.4 mph - N/A   Overcast
11:56 PM 51.8 °F - 51.8 °F 100% 29.74 in 5.0 mi SSW 9.2 mph - N/A   Mostly Cloudy